Flag for Austria Weather past 2 weeks in Lustenau, Vorarlberg, Austria

Now
63 °F

Sunny.


Feels Like: 63 °F
Forecast: 54 / 72 °F
Wind: 8 mph from West

Location: Saint Gallen-Altenrhein

Current Time: Aug 29, 2014 at 8:18:54 AM

Latest Report: Aug 29, 2014 at 7:50 AM


Visibility: 10 mi

Pressure: 30.07 "Hg

Humidity: 88%

Dew point: 59 °F

Location of LustenauLocation

Historic Weather in Lustenau — Graph

°F

Lustenau temperature yesterday

Maximum temperature yesterday: 72 °F (at 4:20 PM)
Minimum temperature yesterday: 52 °F (at 3:20 AM)
Average temperature yesterday: 61 °F

Past Weeks' High & Low Weather Summary

 TemperatureHumidityPressure
High72 °F (Aug 28, 4:20 PM)100% (Aug 17, 3:50 AM)30.21 "Hg (Aug 17, 3:50 AM)
Low46 °F (Aug 25, 2:20 AM)40% (Aug 21, 4:20 PM)29.80 "Hg (Aug 26, 5:20 AM)
Average60 °F74%30.02 "Hg
* Reported Aug 14 7:20 AM — Aug 29 7:20 AM, Lustenau, Weather by CustomWeather, © 2014

Note: Actual official high and low records may vary slightly from our data, if they occured in-between our weather recording intervals... More about our weather records

Advertising

Lustenau weather history for previous 24 hours

 ConditionsComfort  
Time TempWeatherWind HumidityBarometerVisibility
7:20 AM
Aug 29
63 °FClear.8 mph88%30.07 "Hg10 mi
6:50 AM59 °FClear.3 mph94%30.07 "Hg10 mi
6:20 AM57 °FClear.3 mph100%30.04 "Hg10 mi
5:50 AM57 °FClear.2 mph100%30.07 "HgN/A
5:20 AM57 °FCool.2 mph100%30.07 "HgN/A
4:50 AM59 °FPassing clouds.1 mph94%30.07 "HgN/A
4:20 AM61 °FPassing clouds.3 mph94%30.07 "HgN/A
3:50 AM59 °FPartly cloudy.1 mph100%30.07 "HgN/A
3:20 AM59 °FOvercast.2 mph94%30.07 "HgN/A
2:50 AM59 °FOvercast.3 mph94%30.07 "HgN/A
2:20 AM61 °FPassing clouds.3 mph94%30.09 "HgN/A
1:50 AM63 °FPassing clouds.5 mph94%30.09 "HgN/A
1:20 AM63 °FClear.3 mph94%30.09 "HgN/A
12:50 AM64 °FPassing clouds.5 mph88%30.09 "HgN/A
12:20 AM61 °FOvercast.2 mph88%30.07 "HgN/A
11:50 PM
Aug 28
61 °FOvercast.6 mph94%30.07 "HgN/A
11:20 PM61 °FOvercast.2 mph94%30.07 "HgN/A
10:50 PM63 °FPassing clouds.2 mph88%30.07 "HgN/A
10:20 PM63 °FPassing clouds.3 mph88%30.07 "HgN/A
9:50 PM63 °FPassing clouds.2 mph88%30.07 "HgN/A
9:20 PM63 °FClear.2 mph88%30.07 "Hg10 mi
8:50 PM64 °FSunny.2 mph83%30.07 "Hg10 mi
8:20 PM64 °FSunny.2 mph83%30.07 "Hg10 mi
7:50 PM66 °FSunny.2 mph78%30.07 "Hg10 mi
7:20 PM68 °FSunny.2 mph69%30.04 "Hg10 mi
6:50 PM68 °FSunny.1 mph69%30.07 "Hg10 mi
6:20 PM72 °FPassing clouds.3 mph50%30.07 "HgN/A
5:50 PM72 °FSunny.3 mph47%30.07 "Hg10 mi
5:20 PM72 °FSunny.3 mph47%30.07 "Hg10 mi
4:50 PM72 °FSunny.2 mph44%30.07 "Hg10 mi
4:20 PM72 °FSunny.3 mph53%30.07 "Hg10 mi
3:50 PM70 °FPassing clouds.5 mph57%30.07 "HgN/A
3:20 PM70 °FPassing clouds.6 mph57%30.07 "HgN/A
2:50 PM68 °FSunny.6 mph64%30.09 "Hg10 mi
2:20 PM68 °FSunny.5 mph64%30.09 "Hg10 mi
1:50 PM66 °FSunny.5 mph68%30.09 "Hg10 mi
1:20 PM64 °FSunny.6 mph78%30.09 "Hg10 mi
12:50 PM63 °FPassing clouds.5 mph83%30.09 "HgN/A
12:20 PM64 °FPassing clouds.5 mph83%30.09 "HgN/A
11:50 AM63 °FPassing clouds.7 mph88%30.09 "HgN/A
11:20 AM63 °FPassing clouds.6 mph83%30.09 "HgN/A
10:50 AM63 °FPassing clouds.2 mph83%30.09 "HgN/A
10:20 AM61 °FScattered clouds.3 mph88%30.09 "HgN/A
9:50 AM61 °FScattered clouds.2 mph88%30.09 "HgN/A
9:20 AM59 °FScattered clouds.1 mph94%30.09 "HgN/A
8:50 AM59 °FPartly sunny.3 mph94%30.09 "HgN/A
8:20 AM57 °FPartly sunny.2 mph100%30.09 "HgN/A
Weather by CustomWeather, © 2014

See weather overviewHow to use our weather pages